Home   Weather   Oakland   Past weeks

Flag for USA Past Weather in Oakland, California, USA — Yesterday and Last 2 Weeks

Now
59 °F

Low clouds.


Feels Like: 59 °F
Forecast: 58 / 69 °F
Wind: 5 mph from Northwest

Location: Metro Oakland International Airport

Current Time: Sep 28, 2016 at 11:48:20 PM

Latest Report: Sep 28, 2016 at 10:53 PM


Visibility: 10 mi

Pressure: 29.97 "Hg

Humidity: 87%

Dew Point: 55 °F

Location of OaklandLocation

Past Weather in Oakland — Graph

°F

Oakland Temperature Yesterday

Maximum temperature yesterday: 84 °F (at 12:53 PM)
Minimum temperature yesterday: 59 °F (at 5:53 AM)
Average temperature yesterday: 69 °F

High & Low Weather Summary for the Past Weeks

 TemperatureHumidityPressure
High95 °F (Sep 26, 2:53 PM)97% (Sep 18, 6:53 AM)30.16 "Hg (Sep 18, 6:53 AM)
Low52 °F (Sep 23, 6:53 AM)19% (Sep 26, 2:53 PM)29.82 "Hg (Sep 27, 5:53 PM)
Average66 °F69%29.98 "Hg
* Reported Sep 13 10:53 PM — Sep 28 10:53 PM, Oakland, Weather by CustomWeather, © 2016

Note: Actual official high and low records may vary slightly from our data, if they occured in-between our weather recording intervals... More about our weather records

Advertising

Oakland Weather History for the Previous 24 Hours

Scroll right to see more
 ConditionsComfort  
Time TempWeatherWind HumidityBarometerVisibility
10:53 PM
Wed, Sep 28
59 °FLow clouds.5 mph87%29.97 "Hg10 mi
9:53 PM58 °FLow clouds.7 mph90%29.97 "Hg10 mi
8:53 PM58 °FLow clouds.10 mph90%29.95 "Hg10 mi
7:53 PM58 °FLow clouds.14 mph90%29.93 "Hg10 mi
6:53 PM58 °FPartly sunny.15 mph90%29.91 "Hg10 mi
5:53 PM60 °FPassing clouds.18 mph83%29.90 "Hg10 mi
4:53 PM62 °FPassing clouds.16 mph78%29.89 "Hg10 mi
3:53 PM63 °FPassing clouds.18 mph78%29.89 "Hg10 mi
2:53 PM65 °FPassing clouds.17 mph73%29.89 "Hg10 mi
1:53 PM67 °FPassing clouds.16 mph68%29.89 "Hg10 mi
12:53 PM67 °FPassing clouds.14 mph68%29.90 "Hg10 mi
11:53 AM67 °FPassing clouds.12 mph68%29.90 "Hg10 mi
10:53 AM66 °FSunny.13 mph70%29.91 "Hg10 mi
9:53 AM64 °FPassing clouds.9 mph78%29.91 "Hg10 mi
8:53 AM61 °FPassing clouds.10 mph87%29.90 "Hg10 mi
7:53 AM57 °FPassing clouds.5 mph96%29.89 "Hg10 mi
6:53 AM55 °FPassing clouds.3 mph93%29.88 "Hg10 mi
5:53 AM56 °FPassing clouds.No wind90%29.86 "Hg10 mi
4:53 AM57 °FClear.No wind90%29.86 "Hg10 mi
3:53 AM57 °FClear.3 mph90%29.85 "Hg10 mi
2:53 AM58 °FClear.5 mph87%29.86 "Hg10 mi
1:53 AM59 °FClear.5 mph87%29.86 "Hg10 mi
12:53 AM59 °FClear.5 mph90%29.86 "Hg10 mi
11:53 PM
Tue, Sep 27
60 °FClear.7 mph83%29.87 "Hg10 mi
Weather by CustomWeather, © 2016

See weather overviewHow to use our weather pages